Tracking 19245 objects as of 18-Aug-2018
HD Live streaming from Space Station
objects crossing your sky now

NOAA 16 DEB

Track NOAA 16 DEB now!
10-day predictions


NORAD ID: 41210
Int'l Code: 2000-055DP
Perigee: 853.9 km
Apogee: 888.4 km
Inclination: 98.9 °
Period: 102.2 minutes
Semi major axis: 7242 km
RCS: Unknown
Launch date: September 21, 2000
Source: United States (US)
Launch site: AIR FORCE WESTERN TEST RANGE (AFWTR)

Note: This is SATELLITE DEBRIS
aabbcc
Your satellite tracking list
Your tracking list is empty




NASA's NSSDC Master Catalog

Two Line Element Set (TLE):
1 41210U 00055DP  18229.44762581  .00000296  00000-0  19706-3 0  9990
2 41210  98.8782 298.1945 0023880 332.1617  27.8274 14.08645168138885
Source of the keplerian elements: AFSPC